User: anonymous   Login
Location: Callao
(39.8979°N, 113.7141°W)
Time: 22:35:28
(UTC+00:00)
Language:

AO-91 - Orbit

View from above orbital plane
View from above orbital plane
View from above satellite
View from above satellite

Ground track
Ground track

The orbit data is extracted from the following two-line orbital elements,

1 43017U 17073E   21125.45631944  .00000909  00000-0  74392-4 0  9997
2 43017  97.7098  31.1439 0256710  80.7057 282.3086 14.79470257186769
Epoch (UTC): 05 May 2021 10:57:06
Eccentricity: 0.0256710
inclination: 97.7098°
perigee height: 451 km
apogee height: 811 km
right ascension of ascending node: 31.1439°
argument of perigee: 80.7057°
revolutions per day: 14.79470257
mean anomaly at epoch: 282.3086°
orbit number at epoch: 18676

The dashed part of the orbit path shows where the satellite is in the earth's shadow,  

DLR